User: anonymous   Login
Location: Ottawa
(45.4170°N, 75.7000°W)
Time: 03:13:45
(UTC-04:00)
Language:

Aureole 3 Rocket - Orbit

View from above orbital plane
View from above orbital plane
View from above satellite
View from above satellite

Ground track
Ground track

The orbit data is extracted from the following two-line orbital elements,

1 12849U 81094B   16241.52196129  .00000717  00000-0  62499-4 0  9994
2 12849  82.4930  31.2834 0905179 121.7779 247.4796 13.49916945702445
Epoch (UTC): 28 August 2016 12:31:37
Eccentricity: 0.0905179
inclination: 82.4930°
perigee height: 398 km
apogee height: 1747 km
right ascension of ascending node: 31.2834°
argument of perigee: 121.7779°
revolutions per day: 13.49916945
mean anomaly at epoch: 247.4796°
orbit number at epoch: 70244

The dashed part of the orbit path shows where the satellite is in the earth's shadow,  

DLR